This is the latest recevied weather packets stored in our database for station/object 9W2TBJ-4. If no packets are shown the sender has not sent any weather packets the latest 10 day(s).
| Time | Temp. | Humidity | Pressure | Rain* | Wind** | Luminosity | Snow |
|---|---|---|---|---|---|---|---|
| 1777613564 | 33.33° C | 58% | 1010.9 hPa | - | - | - | - |
| 1777612364 | 33.33° C | 58% | 1011.5 hPa | - | - | - | - |
| 1777611164 | 33.33° C | 58% | 1011.6 hPa | - | - | - | - |
| 1777609964 | 32.78° C | 59% | 1011.5 hPa | - | - | - | - |
| 1777608764 | 33.33° C | 57% | 1011.3 hPa | - | - | - | - |
| 1777607564 | 33.33° C | 57% | 1011.6 hPa | - | - | - | - |
| 1777606963 | 33.33° C | 58% | 1011.9 hPa | - | - | - | - |
| 1777605763 | 33.33° C | 58% | 1012.2 hPa | - | - | - | - |
| 1777604563 | 33.33° C | 58% | 1012.1 hPa | - | - | - | - |
| 1777603362 | 32.78° C | 59% | 1012.2 hPa | - | - | - | - |
| 1777602162 | 32.78° C | 59% | 1012.2 hPa | - | - | - | - |
| 1777600962 | 33.33° C | 58% | 1012.1 hPa | - | - | - | - |
| 1777599771 | 33.33° C | 58% | 1011.9 hPa | - | - | - | - |
| 1777598562 | 32.78° C | 58% | 1011.9 hPa | - | - | - | - |
| 1777597362 | 32.22° C | 60% | 1011.8 hPa | - | - | - | - |
| 1777596162 | 32.78° C | 59% | 1011.7 hPa | - | - | - | - |
| 1777594962 | 32.78° C | 59% | 1011.3 hPa | - | - | - | - |
| 1777593762 | 32.22° C | 59% | 1011.2 hPa | - | - | - | - |
| 1777592562 | 31.67° C | 62% | 1010.9 hPa | - | - | - | - |
| 1777591362 | 31.11° C | 63% | 1011.1 hPa | - | - | - | - |
| 1777590162 | 31.67° C | 61% | 1010.9 hPa | - | - | - | - |
| 1777588962 | 31.67° C | 62% | 1010.6 hPa | - | - | - | - |
| 1777587762 | 31.11° C | 63% | 1010.8 hPa | - | - | - | - |
| 1777586562 | 31.67° C | 62% | 1010.7 hPa | - | - | - | - |
| 1777585363 | 31.67° C | 62% | 1010.8 hPa | - | - | - | - |
* Rain since midnight (hover to see other rain measurements)
** Current wind speed in m/s (hover to see current wind gust speed)